This demonstration page uses our WeatherBlox Daily Observations layout. Learn more.

Left ArrowRight Arrow

Hourly Observations for July 24, 2018

Temp ( °F °C ) Dew Point ( °F °C ) Humidity (%) Winds ( mph kmh ) Pressure ( in mb ) Visibility ( mi km ) Precip ( " mm )
12:53 am 00:53 Clear 68 20 45 7.2 44 44 E 15 24 30.07 1018 10 16 0.00 0.00
1:53 am 01:53 Clear 65 18.3 44 6.7 47 47 NNE 18 30 30.10 1019 10 16 0.00 0.00
2:53 am 02:53 Clear 63 17.2 44 6.7 50 50 ENE 20 31 30.10 1019 10 16 0.00 0.00
3:53 am 03:53 Clear 61 16.1 44 6.7 54 54 ENE 16 26 30.13 1020 10 16 0.00 0.00
4:53 am 04:53 Clear 60 15.6 45 7.2 58 58 ENE 16 26 30.15 1021 10 16 0.00 0.00
5:53 am 05:53 Sunny 58 14.4 46 7.8 65 65 ENE 13 20 30.16 1021 10 16 0.00 0.00
6:53 am 06:53 Sunny 59 15 45 7.2 60 60 E 9 15 30.16 1022 10 16 0.00 0.00
7:53 am 07:53 Sunny 63 17.2 46 7.8 54 54 ENE 8 13 30.17 1022 10 16 0.00 0.00
8:53 am 08:53 Sunny 68 20 47 8.3 47 47 NE 10 17 30.18 1022 10 16 0.00 0.00
9:53 am 09:53 Sunny 71 21.7 47 8.3 42 42 E 9 15 30.18 1022 10 16 0.00 0.00
10:53 am 10:53 Sunny 74 23.3 47 8.3 38 38 ENE 6 9 30.17 1022 10 16 0.00 0.00
11:53 am 11:53 Sunny 77 25 46 7.8 33 33 ENE 10 17 30.16 1021 10 16 0.00 0.00
12:53 pm 12:53 Sunny 76 24.4 46 7.8 35 35 VRB 3 6 30.14 1021 10 16 0.00 0.00
1:53 pm 13:53 Sunny 81 27.2 46 7.8 29 29 E 8 13 30.12 1020 10 16 0.00 0.00
2:53 pm 14:53 Sunny 82 27.8 47 8.3 29 29 VRB 7 11 30.11 1020 10 16 0.00 0.00
3:53 pm 15:53 Partly Cloudy 83 28.3 47 8.3 28 28 ENE 17 28 30.10 1019 10 16 0.00 0.00
4:53 pm 16:53 Sunny 82 27.8 47 8.3 29 29 NE 9 15 30.09 1019 10 16 0.00 0.00
5:53 pm 17:53 Sunny 83 28.3 47 8.3 28 28 ENE 9 15 30.08 1019 10 16 0.00 0.00
6:53 pm 18:53 Sunny 80 26.7 47 8.3 31 31 ENE 14 22 30.09 1019 10 16 0.00 0.00
7:53 pm 19:53 Sunny 78 25.6 47 8.3 33 33 ENE 8 13 30.09 1019 10 16 0.00 0.00
8:53 pm 20:53 Partly Cloudy 70 21.1 52 11.1 53 53 NE 18 30 30.15 1021 10 16 0.00 0.00
9:53 pm 21:53 Mostly Cloudy 67 19.4 53 11.7 61 61 ENE 14 22 30.16 1022 10 16 0.00 0.00
10:53 pm 22:53 Cloudy with Heavy Rain 62 16.7 55 12.8 78 78 NE 9 15 30.22 1024 5 8 0.06 1.52
11:53 pm 23:53 Cloudy with Light Rain 62 16.7 57 13.9 84 84 NE 10 17 30.21 1023 10 16 0.03 0.76

Powered by AerisWeather